Location: Newark
(45.2500°N, 7.5833°E)
Time: 22:33:02
(UTC+00:00)

BEESAT 2 - Visible Passes

Search period start: 21 February 2020 00:00
Search period end: 02 March 2020 00:00
Orbit: 493 x 534 km, 64.9° (Epoch: 21 February)

Date Brightness Start Highest point End Pass type
(mag) Time Alt. Az. Time Alt. Az. Time Alt. Az.
21 Feb ? 18:58:03 10° NNE 18:58:07 10° NNE 18:58:07 10° NNE visible
22 Feb ? 18:41:40 10° NNE 18:42:26 11° NNE 18:42:26 11° NNE visible
22 Feb ? 20:17:17 10° NNW 20:17:23 11° NNW 20:17:23 11° NNW visible
23 Feb ? 18:25:17 10° NNE 18:26:22 11° NNE 18:26:46 11° NE visible
23 Feb ? 20:00:56 10° NNW 20:01:44 15° NNW 20:01:44 15° NNW visible
24 Feb ? 18:08:54 10° NNE 18:10:01 11° NNE 18:11:08 10° NE visible
24 Feb ? 19:44:34 10° NNW 19:46:08 22° NNW 19:46:08 22° NNW visible
25 Feb ? 17:52:32 10° NNE 17:53:40 11° NNE 17:54:48 10° NE visible
25 Feb ? 19:28:13 10° NNW 19:30:36 32° N 19:30:36 32° N visible
26 Feb ? 19:11:52 10° NNW 19:15:09 47° NNE 19:15:09 47° NNE visible
27 Feb ? 18:55:30 10° NNW 18:59:28 54° NE 18:59:47 52° ENE visible
27 Feb ? 20:34:08 10° WNW 20:34:46 12° W 20:34:46 12° W visible
28 Feb ? 18:39:08 10° NNW 18:43:06 54° NE 18:44:32 34° ESE visible
28 Feb ? 20:17:47 10° WNW 20:19:32 15° W 20:19:32 15° W visible
29 Feb ? 18:22:46 10° NNW 18:26:44 55° NE 18:29:27 19° SE visible
29 Feb ? 20:01:26 10° WNW 20:03:55 16° WSW 20:04:27 16° WSW visible
01 Mar ? 18:06:24 10° NNW 18:10:22 55° NE 18:14:17 10° SE visible
01 Mar ? 19:45:05 10° WNW 19:47:33 16° WSW 19:49:32 12° SW visible
